Harrison Cross-Country Invitational Date: 9/03/11  Venue: Harrison HS - West Lafayette, IN
Events
Men's Events Women's Events
Men's 5k JV Women's 5k Varsity
Men's 5k Varsity Women's 5k JV
Men's 5k JV Team Scores
Rank Team name Total Time Avg. Time Score 1 2 3 4 5 6 7
1 Franklin Central 9:06:58 20:15 31 2 5 7 8 9 12 21
2 Bloomington South 7:38:47 19:06 32 1 4 6 10 11 15 19
3 Zionsville 13:04:14 20:38 126 3 17 25 37 44 45 47
4 Portage 7:18:21 19:55 145 16 23 26 38 42 49 58
5 Lawrence North 10:57:14 20:32 149 20 30 32 33 34 54 65
6 Warren Central 6:19:02 21:03 152 14 22 29 36 51 70 97
7 Fishers 4:47:01 20:30 219 24 28 48 53 66 82 88
8 Goshen 2:52:17 19:08 241 35 43 50 56 57 67 79
9 Andrean 3:28:10 20:49 270 13 18 63 75 101 106 117
10 McCutcheon 5:18:54 21:15 301 27 52 72 74 76 87 107
11 Avon 5:57:08 22:19 319 40 46 55 80 98 99 103
12 Lake Central 5:05:47 20:23 329 31 61 68 77 92 94 95
13 LaPorte 2:43:49 20:28 330 39 41 64 84 102 105 132
14 Munster 4:24:23 20:20 331 59 60 62 69 81 96 104
15 Harrison (West Lafayette) 3:18:12 22:01 483 83 85 90 112 113 125 134
16 Highland 4:08:16 22:34 498 86 89 100 109 114 121 129
17 Kankakee Valley 1:45:59 21:11 531 73 78 116 131 133
18 Lafayette Jefferson 4:26:52 22:14 538 91 93 111 120 123 126 130
19 Pike 2:33:57 21:59 559 71 115 122 124 127 136 137
20 West Lafayette 2:10:03 21:40 583 108 110 118 119 128 135
Men's 5k JV Individual Results
Place Name Year Team Avg. Mile Time Score
1 Williams, Anthony 9 Bloomington South 5:30.1 17:05.8 1
2 Shuck, Evan 10 Franklin Central 5:33.1 17:15.1 2
3 Brake, Andrew 10 Zionsville 5:34.9 17:20.7 3
4 Staton, Michael 12 Bloomington South 5:35.1 17:21.3 4
5 Butcher, Joey 12 Franklin Central 5:35.4 17:22.3 5
6 Voskuil, Peter 9 Bloomington South 5:36.0 17:24.1 6
7 Wright, Shane 11 Franklin Central 5:36.6 17:25.8 7
8 Hardimon, Eddie 10 Franklin Central 5:36.9 17:26.7 8
9 McCauley, Zach 10 Franklin Central 5:38.3 17:31.3 9
10 Martinez, Xavier 9 Bloomington South 5:39.8 17:35.8 10
11 Burt, Alex 10 Bloomington South 5:39.9 17:36.2 11
12 Jones, Lake 12 Franklin Central 5:40.1 17:36.7 12
13 Phillips, Zach 11 Andrean 5:41.6 17:41.3 13
14 Horn, Damon 9 Warren Central 5:41.9 17:42.4 14
15 Loar, Marcus 12 Bloomington South 5:42.5 17:44.2 15
16 Lamping, Cory 12 Portage 5:46.6 17:57.0 16
17 Keen, Tyler 11 Zionsville 5:47.1 17:58.5 17
18 DeMass, Nick 12 Andrean 5:47.5 17:59.9 18
19 Briggs, Ethan 10 Bloomington South 5:48.2 18:01.9 19
20 Noens, Adam 9 Lawrence North 5:49.8 18:06.7 20
21 Atwal, RJ 9 Franklin Central 5:50.0 18:07.4 21
22 Amezcua, Gabe 12 Warren Central 5:50.3 18:08.5 22
23 Martinez, Mauricio 10 Portage 5:50.6 18:09.3 23
24 LaBonne, Chase 9 Fishers 5:50.7 18:09.7 24
25 Heinrich, Joseph 10 Bloomington South 5:50.8 18:10.1
26 Abbitt, Ty 11 Zionsville 5:50.9 18:10.5 25
27 Benton, David 9 Bloomington South 5:51.1 18:11.0
28 Huber, Tim 11 Portage 5:51.9 18:13.4 26
29 Russell, Zach 11 McCutcheon 5:52.7 18:16.0 27
30 Vickers, Max 11 Bloomington South 5:53.4 18:18.2
31 Fleck, Ryan 12 Fishers 5:53.7 18:19.1 28
32 Woerner, Nick 12 Warren Central 5:54.1 18:20.1 29
33 Socks, Michael 11 Lawrence North 5:55.7 18:25.3 30
34 St john, Brian 9 Lake Central 5:56.0 18:26.0 31
35 Perry, Bradley 12 Lawrence North 5:56.2 18:26.7 32
36 Salupo, Andrew 12 Lawrence North 5:56.4 18:27.4 33
37 Hanawalt, Jake 10 Lawrence North 5:56.9 18:28.8 34
38 Castillo, Jesus 12 Goshen 5:57.0 18:29.2 35
39 Dykes, DJ 11 Warren Central 5:57.1 18:29.7 36
40 Boggs, Beau 10 Zionsville 5:57.3 18:30.2 37
41 Hertenstein, Noah 10 Franklin Central 5:57.4 18:30.7
42 Conrad, Mackenzie 12 Bloomington South 5:57.6 18:31.0
43 Logsdon, Dylan 11 Portage 5:58.2 18:33.1 38
44 Dearing, Eric 11 LaPorte 5:59.3 18:36.4 39
45 Rice, Caleb 12 Avon 5:59.6 18:37.2 40
46 Dickson, Tim 10 LaPorte 5:59.8 18:38.0 41
47 Tribble, Gemel 10 Portage 6:00.1 18:38.9 42
48 Abad, Gerardo 9 Goshen 6:00.2 18:39.3 43
49 Nanavaty, Aaron 12 Franklin Central 6:00.6 18:40.4
50 Cash, Ryan 9 Zionsville 6:00.7 18:40.8 44
51 Fenton, Jesse 10 Zionsville 6:00.8 18:41.1 45
52 Ridgway, Keegan 9 Avon 6:01.0 18:41.6 46
53 Niksch, Alex 11 Zionsville 6:01.3 18:42.5 47
54 Warren, Tyler 10 Fishers 6:01.4 18:43.0 48
55 Galvan, Jacob 9 Portage 6:01.7 18:43.9 49
56 Graves, Shawn 9 Goshen 6:01.9 18:44.6 50
57 Romanyshak, Daniel 12 Bloomington South 6:02.7 18:47.0
58 Bohlman, Mik 11 Warren Central 6:02.9 18:47.7 51
59 Storms, Spencer 11 McCutcheon 6:03.2 18:48.7 52
60 Barr, Nathan 11 Fishers 6:04.6 18:52.7 53
61 Gauen, Kent 10 Lawrence North 6:04.8 18:53.5 54
62 Winters, Logan 9 Zionsville 6:05.1 18:54.3
63 Robida, Blaine 12 Avon 6:05.3 18:55.1 55
64 Cuatepotzo, Gustavo 11 Goshen 6:05.9 18:56.9 56
65 Josse, Smith 10 Bloomington South 6:06.3 18:58.3
66 Alcaraz, Rolando 12 Goshen 6:06.7 18:59.5 57
67 Stelmack, Nick 9 Portage 6:07.0 19:00.5 58
68 Wise, Christian 10 Franklin Central 6:07.2 19:01.0
69 Murphy, Jimmy 9 Munster 6:07.3 19:01.4 59
70 Doctor, Russell 11 Munster 6:07.5 19:01.8 60
71 Rech, Jeromy 12 Lake Central 6:07.6 19:02.3 61
72 Weidner, Grayson 9 Bloomington South 6:08.4 19:04.6
73 Jachna, Roger 10 Munster 6:08.9 19:06.3 62
74 Brown, Nick 12 Zionsville 6:09.2 19:07.1
75 Applegate, Alex 11 Andrean 6:09.4 19:07.8 63
76 Passios, Chris 9 Franklin Central 6:09.6 19:08.4
77 Gaul, Jared 12 LaPorte 6:09.7 19:08.9 64
78 Perkins, Erik 9 Lawrence North 6:10.0 19:09.7 65
79 Gafkjen, Nathan 12 Fishers 6:10.8 19:12.1 66
80 Wiese, Jacob 9 Goshen 6:12.3 19:17.0 67
81 Geisler, Peyton 10 Franklin Central 6:12.5 19:17.3
82 Bouma, Mitch 11 Lake Central 6:12.6 19:17.8 68
83 Spoor, Michael 9 Franklin Central 6:12.8 19:18.3
84 Sanford, Tyler 11 Lawrence North 6:13.1 19:19.3
85 Hernandez, Mario 10 Munster 6:13.2 19:19.7 69
86 McMillan, Austin 12 Warren Central 6:13.3 19:20.0 70
87 Quinn, Quinn 9 Pike 6:13.5 19:20.5 71
88 Lamb, Taylor 11 McCutcheon 6:14.0 19:22.2 72
89 Wicker, Justin 12 Kankakee Valley 6:14.2 19:22.6 73
90 Weddle, Nick 12 Zionsville 6:14.3 19:23.1
91 Gossweiler, Andre 10 Zionsville 6:14.5 19:23.5
92 Stidd, Eli 11 Bloomington South 6:14.6 19:24.1
93 Shinsky, Travis 9 McCutcheon 6:15.0 19:25.2 74
94 Griffin, Jack 10 Zionsville 6:15.2 19:25.9
95 Lawrence, Sklyer 13 Franklin Central 6:15.9 19:27.9
96 Taylor, Cordell 11 Andrean 6:16.2 19:28.9 75
97 Chenoweth, Colin 9 Portage 6:16.4 19:29.4
98 Berryman, Justin 9 McCutcheon 6:17.0 19:31.3 76
99 DeWitte, Luke 11 Franklin Central 6:17.1 19:31.8
100 Rowley, Christopher 12 Lawrence North 6:17.3 19:32.3
101 Talhelm, Robbie 9 Franklin Central 6:17.5 19:32.9
102 Spanier, Matt 11 Lake Central 6:17.8 19:34.0 77
103 Stemper, Jacob 9 Kankakee Valley 6:18.0 19:34.5 78
104 Lewellen, Parker 10 Franklin Central 6:18.2 19:35.3
105 Sorenson, Kameron 10 Portage 6:18.5 19:36.2
106 Achgill, Colin 10 Lawrence North 6:19.0 19:37.5
107 Wadlington, Adam 12 Lawrence North 6:19.3 19:38.7
108 Blackwell, Emilio 10 Portage 6:19.6 19:39.6
109 Loeffler, Brad 10 Franklin Central 6:19.8 19:40.0
110 Graves, Lane 9 Goshen 6:20.0 19:40.6 79
111 Howe, Mike 9 Avon 6:20.1 19:41.1 80
112 Kloos, Adam 12 Munster 6:20.4 19:41.9 81
113 Schmidt, Adam 10 Fishers 6:20.6 19:42.7 82
114 Laramie, A.J. 11 Portage 6:20.8 19:43.1
115 Woodward, Nick 11 Goshen 6:21.3 19:44.9
116 Unland, Andrew 11 Lawrence North 6:21.7 19:45.9
117 Alvarodo, Marlow 11 Goshen 6:21.8 19:46.3
118 Elkins, Addison 10 Bloomington South 6:22.0 19:47.0
119 Abram, Connor 10 Bloomington South 6:22.4 19:48.4
120 Hodges, Michael 12 Harrison (West Lafayette) 6:22.8 19:49.5 83
121 West, Spencer 11 LaPorte 6:23.0 19:50.0 84
122 Leidy, John 11 Harrison (West Lafayette) 6:23.1 19:50.5 85
123 Stohler, Grant 10 Lawrence North 6:23.9 19:52.7
124 Swets, Zack 11 Portage 6:25.0 19:56.4
125 Spiegel, Trevor 12 Highland 6:25.4 19:57.7 86
126 Quillen, Kyle 12 McCutcheon 6:25.7 19:58.6 87
127 Fox, Trevor 10 Zionsville 6:25.9 19:59.1
128 Williams, Connor 11 Fishers 6:26.2 19:59.9 88
129 Rivera, Andrew 12 Highland 6:26.5 20:00.9 89
130 Oneal, Joe 11 Harrison (West Lafayette) 6:26.9 20:02.1 90
131 Weber, Mitch 11 Zionsville 6:27.1 20:02.9
132 Orduno, Markevus 11 Fishers 6:27.4 20:03.8
133 Feltis, Daniel 9 Lafayette Jefferson 6:28.0 20:05.6 91
134 Newell, Blake 9 Lake Central 6:28.2 20:06.3 92
135 Knott, Morgan 11 Lawrence North 6:28.5 20:07.0
136 Carson, Jake 12 Lawrence North 6:28.6 20:07.5
137 Hannan, Eric 9 Lawrence North 6:28.9 20:08.5
138 Thorn, Mark 10 Zionsville 6:29.1 20:09.0
139 Vandievier, Zach 9 Lafayette Jefferson 6:29.2 20:09.5 93
140 Bartley, Sam 12 Zionsville 6:29.4 20:09.9
141 Brandon, Long 9 Lake Central 6:29.5 20:10.2 94
142 Nottingham, Alex 11 Lake Central 6:29.6 20:10.6 95
143 Maples, Garret 10 Portage 6:29.7 20:11.0
144 Heimberg, Nick 9 Portage 6:30.1 20:12.1
145 Bruce, Evan 9 Bloomington South 6:30.2 20:12.5
146 Cappo, Chris 12 Munster 6:30.4 20:12.9 96
147 Martin, Antwan 10 Warren Central 6:30.5 20:13.3 97
148 Snyder, David 10 Zionsville 6:30.6 20:13.7
149 Buckman, Michael 12 Lake Central 6:30.8 20:14.4
150 Wieczorek, Calvin 12 Avon 6:31.1 20:15.2 98
151 Mendoza, Jeremy 11 Portage 6:31.4 20:16.1
152 Coleman, Louis 10 Portage 6:31.5 20:16.4
153 Viduarri, Eduardo 12 Bloomington South 6:31.6 20:16.9
154 Mesman, Indy 10 Lake Central 6:31.8 20:17.4
155 Dillman, Jared 11 Avon 6:32.0 20:18.1 99
156 Johnson, Myles 12 Fishers 6:32.2 20:18.7
157 Anguiano, Arthur 12 Portage 6:32.5 20:19.5
158 Gillenwater, Kayden 11 Bloomington South 6:32.7 20:20.2
159 Stilwell, J.R. 9 Portage 6:32.9 20:20.8
160 Scardine, Matt 11 Highland 6:33.1 20:21.5 100
161 Shive, Erik 10 Andrean 6:33.2 20:21.9 101
162 Johnson, Dylan 10 Zionsville 6:33.4 20:22.3
163 Pierce, James 11 Zionsville 6:33.5 20:22.7
164 Gustas, Daniel 10 Lake Central 6:33.6 20:23.1
165 Martin, Antonio 11 Warren Central 6:33.8 20:23.5
166 Miller, Sam 9 LaPorte 6:34.0 20:24.3 102
167 Bandick, Jason 10 Zionsville 6:34.4 20:25.6
168 Wagner, Logan 9 Zionsville 6:34.8 20:26.8
169 Farmer, Seth 10 Fishers 6:35.3 20:28.3
170 Glover, Kendall 10 Portage 6:35.5 20:29.0
171 Woldai, DaWit 10 Avon 6:35.7 20:29.5 103
172 Gutierrez, Ivan 12 Munster 6:35.8 20:29.9 104
173 Conger, CJ 11 Warren Central 6:36.1 20:30.8
174 Joachim, Peyton 11 Lawrence North 6:36.4 20:31.9
175 Jerger, TJ 9 Lawrence North 6:36.6 20:32.5
176 Brookshire, Blake 9 Kokomo 6:36.9 20:33.2
177 Raymond, AJ 10 LaPorte 6:37.2 20:34.2 105
178 Germonprez, Christian 10 Andrean 6:37.4 20:34.9 106
179 Emminger, Tristan 10 Franklin Central 6:37.6 20:35.6
180 Huff, Lukas 12 McCutcheon 6:38.2 20:37.2 107
181 Beckman, John 12 Munster 6:39.1 20:40.0
182 Haskett, TJ 9 Franklin Central 6:39.8 20:42.1
183 Prisby, Kyle 11 Lake Central 6:40.1 20:43.3
184 Resner, Daniel 10 Lawrence North 6:40.4 20:44.1
185 Ogg, Nicki 11 West Lafayette 6:41.0 20:46.1 108
186 Rea, Parker 12 Lawrence North 6:41.2 20:46.5
187 Paulas, Joey 9 Lake Central 6:41.4 20:47.1
188 Prendergast, Matt 12 Highland 6:41.8 20:48.5 109
189 Demmings IV, Meddie 9 Lawrence North 6:43.3 20:53.2
190 Woodfork, Winston 9 Lawrence North 6:43.8 20:54.8
191 Varadi, Ryan 9 Lawrence North 6:44.5 20:56.8
192 Kwon, Jae 9 West Lafayette 6:44.6 20:57.2 110
193 Szala, Matt 10 Munster 6:44.8 20:58.0
194 Brown, Adrian 12 Lafayette Jefferson 6:45.0 20:58.4 111
195 Eckweiler, Dane 12 Wheeler 6:45.1 20:58.8
196 Berkey, Evan 9 Harrison (West Lafayette) 6:45.2 20:59.2 112
197 Shelton, Patrick 9 Harrison (West Lafayette) 6:45.4 20:59.6 113
198 Banach, Brian 9 Munster 6:45.6 21:00.3
199 Zimny, Scott 12 Highland 6:45.7 21:00.7 114
200 Schaefer, Aaron 9 Portage 6:46.1 21:02.0
201 Breger, Korey 12 Munster 6:46.4 21:02.9
202 Gardner, David 11 Warren Central 6:46.6 21:03.5
203 Bemis, Ben 10 Warren Central 6:46.9 21:04.3
204 Kellogg, Sam 11 Zionsville 6:47.3 21:05.5
205 Asher, Andy 9 Franklin Central 6:47.6 21:06.4
206 Barrozo, Rigo 9 Portage 6:47.8 21:07.1
207 Ballinger, Taylor 12 Zionsville 6:48.1 21:08.1
208 Stillion, Max 12 Bloomington South 6:48.6 21:09.5
209 James, Tanford 10 Bloomington South 6:48.8 21:10.2
210 Vandever, Brandon 10 Pike 6:49.0 21:11.0 115
211 Howe, Brandon 10 Lawrence North 6:50.5 21:15.5
212 Keister, Andrew 12 Kankakee Valley 6:51.6 21:19.0 116
213 Moore, Jamil 10 Bloomington South 6:52.9 21:23.0
214 Grillo, Jared 9 Fishers 6:55.0 21:29.4
215 Neal, Christian 10 Lawrence North 6:55.3 21:30.6
216 Loring-Hale, Max 10 Zionsville 6:55.6 21:31.4
217 Buckles, Brady 10 McCutcheon 6:55.7 21:31.8
218 English, Brett 9 Zionsville 6:55.9 21:32.3
219 Mulshine, Brendan 10 Andrean 6:56.1 21:32.8 117
220 Wang, Bryce 12 West Lafayette 6:56.3 21:33.6 118
221 Hersberger, Zach 9 Avon 6:56.5 21:34.2
222 Lane, Andrew 10 Lake Central 6:57.0 21:35.7
223 Clark, Scott 9 West Lafayette 6:57.3 21:36.6 119
224 Frausto, Daniel 12 Lafayette Jefferson 6:57.6 21:37.6 120
225 Thompson, Grant 12 Munster 6:57.7 21:38.0
226 Chavez, Adrian 9 Highland 6:57.9 21:38.6 121
227 Isaac, Jacob 9 Pike 6:58.4 21:40.0 122
228 Papalia, James 11 Warren Central 6:59.1 21:42.4
229 Walter, Andrew 9 Lafayette Jefferson 6:59.5 21:43.4 123
230 Nguyen, Ben 11 Fishers 6:59.9 21:44.6
231 Harder, Lucas 11 Zionsville 7:00.4 21:46.1
232 Laird, Justin 10 Lawrence North 7:00.5 21:46.6
233 Walters, Mitch 11 McCutcheon 7:00.6 21:47.0
234 Brown, Colton 9 Twin Lakes 7:00.8 21:47.6
235 Drew, Tim 10 McCutcheon 7:01.0 21:48.0
236 Ketiku, Michael 12 Pike 7:01.1 21:48.5 124
237 Apple, Austin 12 McCutcheon 7:01.5 21:49.7
238 Thoma, Eric 10 Harrison (West Lafayette) 7:02.3 21:52.2 125
239 Brown, Cameron 9 Lafayette Jefferson 7:02.5 21:52.7 126
240 Mangus, Ben 10 Zionsville 7:02.7 21:53.3
241 Harper, Tyler 10 Pike 7:02.8 21:53.8 127
242 Bittles, Bradley 9 West Lafayette 7:03.0 21:54.4 128
243 East, Tony 11 Zionsville 7:03.3 21:55.5
244 Anderson, Thomas 10 Zionsville 7:03.7 21:56.5
245 Griffin, Marcus 9 Avon 7:03.8 21:57.0
246 Sharpe, Ben 10 Lawrence North 7:04.0 21:57.6
247 Wise, Patrick 10 Zionsville 7:05.0 22:00.5
248 Odonnell, Nolan 9 Highland 7:05.2 22:01.1 129
249 Martin, Josh 11 Zionsville 7:05.7 22:02.6
250 Kowalkowski, Adam 11 Highland 7:05.9 22:03.5
251 Cole, Zach 9 Lawrence North 7:06.1 22:04.0
252 Smith, Cody 9 Lawrence North 7:06.3 22:04.5
253 Smith, Noah 9 Franklin Central 7:08.1 22:10.1
254 Fuhs, Kevin 9 Munster 7:08.3 22:10.9
255 Cramer, Jon 10 Avon 7:08.6 22:11.7
256 Beaverson, Isaac 10 Fishers 7:09.7 22:15.3
257 Chien, Eric 12 Zionsville 7:10.0 22:16.1
258 Brown, Xavion 11 Lafayette Jefferson 7:10.4 22:17.3 130
259 Weissbeck, Josh 9 Lake Central 7:10.6 22:17.8
260 Sowinski, James 10 Zionsville 7:11.4 22:20.4
261 marco, ortega 11 Highland 7:11.8 22:21.6
262 Stevick, Kurtis 10 Andrean 7:12.7 22:24.5
263 Yost, C.J. 12 Lafayette Jefferson 7:12.9 22:25.3
264 Dant, Luke 9 Warren Central 7:13.2 22:26.0
265 Condes, Henri 10 Zionsville 7:13.4 22:26.8
266 Clark, Nathan 12 Bloomington South 7:13.7 22:27.6
267 Commons, Tyler 9 McCutcheon 7:15.8 22:34.1
268 Ribordy, Denis 9 Wheeler 7:16.1 22:35.0
269 Martin, Brandon 9 Kankakee Valley 7:16.3 22:35.8 131
270 Monfreda, Dalton 11 Lawrence North 7:17.2 22:38.5
271 Sommers, Caleb 12 McCutcheon 7:17.5 22:39.5
272 Alora, Adrian 9 Franklin Central 7:17.8 22:40.4
273 Bowdish, Nate 9 Lake Central 7:18.4 22:42.4
274 Deno, Dakota 10 Rensselaer Central 7:18.8 22:43.4
275 Bennett, Sam 10 Zionsville 7:19.2 22:44.8
276 Weaver, Mark 9 Twin Lakes 7:20.0 22:47.2
277 Whitelow, Anthony 9 Warren Central 7:20.5 22:48.9
278 Spangler, Logan 9 Rensselaer Central 7:20.8 22:49.7
279 Fisher, Kenny 10 Lafayette Jefferson 7:21.0 22:50.4
280 Rumble, Ryan 12 McCutcheon 7:22.1 22:53.7
281 Hochgesang, Eric 9 Avon 7:22.6 22:55.3
282 Skomp, Jacob 11 Lafayette Jefferson 7:24.5 23:01.1
283 Sigman, Skylar 11 Twin Lakes 7:25.9 23:05.6
284 McDonald, Trevor 9 LaPorte 7:26.4 23:07.1 132
285 Hudspeth, Josh 11 Kankakee Valley 7:26.6 23:07.9 133
286 Smith, Tylor 11 Warren Central 7:27.1 23:09.1
287 Schwarz, Jake 9 Zionsville 7:27.2 23:09.7
288 D'Alphonso, Nick 10 Harrison (West Lafayette) 7:28.6 23:13.9 134
289 Blomberg, Andy 12 West Lafayette 7:29.1 23:15.5 135
290 Warner, Darius 10 Pike 7:29.8 23:17.6 136
291 Hatchett, Antwon 12 Warren Central 7:30.3 23:19.1
292 Austin, Courtney 12 LaPorte 7:34.2 23:31.4
293 Sangani, Kishan 12 Avon 7:34.9 23:33.6
294 Davis, Daniel 10 Harrison (West Lafayette) 7:39.8 23:48.8
295 Layton, Alex 9 Avon 7:41.0 23:52.4
296 Russell, Justin 9 Zionsville 7:41.3 23:53.4
297 Bousom, Noah 9 Franklin Central 7:42.7 23:57.9
298 Meccia, Patrick 9 Andrean 7:43.9 24:01.3
299 Chamberlain, Joey 10 Zionsville 7:44.5 24:03.5
300 Solomon, Troy 11 Kokomo 7:45.4 24:06.2
301 Lane, Grey 10 Lafayette Jefferson 7:48.2 24:14.9
302 Hendon, Colten 11 Rensselaer Central 7:53.0 24:29.8
303 Thurston, Austin 10 Warren Central 7:53.1 24:30.1
304 Fry, Andy 9 Benton Central 7:58.1 24:45.6
305 Baker, Tyler 9 Pike 7:58.2 24:46.0 137
306 Mitchell, Ian 9 Lawrence North 8:01.3 24:55.5
307 Markham, Ian 10 Andrean 8:02.1 24:58.1
308 Garner, Slater 10 Franklin Central 8:04.5 25:05.6
309 Petr, Jack 9 Lawrence North 8:14.4 25:36.2
310 Lear, Kaleb 9 Lafayette Jefferson 8:14.5 25:36.6
311 Chambers, Aric 10 Benton Central 8:21.0 25:56.6
312 Fredbloom, Matt 9 Avon 8:30.6 26:26.7
313 Peksenak, Luke 12 Portage 8:30.8 26:27.3
314 Hiscox, Zach 12 Benton Central 8:39.7 26:54.8
315 LIndsey, Noah 9 Warren Central 8:42.7 27:04.1
316 Robson, Charles 10 Franklin Central 8:46.9 27:17.2
317 Little, Jeremy 12 Avon 8:50.0 27:26.8
318 Fackelman, Jayden 10 Harrison (West Lafayette) 8:53.3 27:37.2
319 Anders, Caleb 9 Fishers 8:55.0 27:42.3
320 Tucker, Jon 11 McCutcheon 8:58.3 27:52.6
321 Dalsalto, Dan 9 Highland 9:13.1 28:38.6
322 Young, Jonathon 9 Franklin Central 9:18.4 28:55.2
323 Walker, Richie 9 Highland 9:27.7 29:24.1
324 Pittman, Collin 10 Avon 9:43.6 30:13.5
Women's 5k Varsity Team Scores
Rank Team name Total Time Avg. Time Score 1 2 3 4 5 6 7
1 Avon 2:18:16 19:45 53 5 9 10 12 17 25 59
2 Franklin Central 2:18:15 19:45 66 7 8 14 16 21 22 42
3 Fishers 2:21:07 20:09 121 14 18 26 29 34 44 53
4 Lake Central 2:22:53 20:24 163 6 27 35 47 48 52 61
5 Portage 2:24:18 20:36 166 13 20 24 54 55 62 97
6 West Lafayette 2:24:17 20:36 174 3 23 37 41 70 80 85
7 Zionsville 2:24:18 20:36 180 28 32 36 38 46 64 78
8 Bloomington South 2:23:44 20:32 198 2 31 43 57 65 66 71
9 Pike 2:26:01 20:51 207 30 33 39 45 60 79 93
10 Warren Central 2:30:36 21:30 306 11 58 63 68 106 111 116
11 Harrison (West Lafayette) 2:36:56 22:25 393 51 56 87 98 101 134 141
12 Westfield 2:33:30 21:55 398 50 81 82 86 99 105 109
13 LaPorte 2:35:45 22:15 402 1 75 94 114 118 132 136
14 Lawrence North 2:34:01 22:00 431 74 84 90 91 92 102 103
15 Andrean 2:21:56 23:39 439 4 69 104 125 137 156
16 Munster 2:35:45 22:15 451 49 67 110 112 113 115 119
17 Wheeler 1:54:00 22:48 474 19 88 107 108 152
18 McCutcheon 2:37:26 22:29 488 83 89 96 100 120 124 128
19 Kankakee Valley 2:20:16 23:22 526 73 76 95 138 144 147
20 Lafayette Jefferson 2:47:20 23:54 566 40 117 130 139 140 148 150
21 Twin Lakes 2:43:02 23:17 575 77 121 122 126 129 131 146
22 Benton Central 3:02:42 26:06 645 72 127 142 151 153 154 155
23 Rensselaer Central 2:27:01 24:30 679 123 133 135 143 145 149
Women's 5k Varsity Individual Results
Place Name Year Team Avg. Mile Time Score
1 Lancioni, Elena 10 LaPorte 6:00.6 18:40.4 1
2 Warzyniak, Alex 10 Bloomington South 6:01.1 18:42.0 2
3 Burgess, Bobbie 11 West Lafayette 6:01.6 18:43.4 3
4 Conley, Becca 11 Andrean 6:03.2 18:48.5 4
5 Smith, Taylor 12 Avon 6:11.2 19:13.5 5
6 Carroll, Shelby 12 Lake Central 6:11.8 19:15.2 6
7 Al-Anzi, Jasmine 12 Franklin Central 6:14.2 19:22.8 7
8 Jackson, Meredith 12 Franklin Central 6:15.1 19:25.5 8
9 McNealy, Jesse 12 Avon 6:15.9 19:28.1 9
10 Reed, Kennedy 10 Avon 6:16.1 19:28.6 10
11 Baughman, Haley 12 Warren Central 6:16.3 19:29.4 11
12 Kerr, Courtney 9 Avon 6:17.7 19:33.5 12
13 Norman, Terra 12 Portage 6:17.9 19:34.3 13
14 Taft, Kirsten 12 Franklin Central 6:18.3 19:35.4 14
14 Reyes, Ally 11 Fishers 6:18.3 19:35.4 14
16 McCann, Lexi 9 Franklin Central 6:19.4 19:38.9 16
17 Abramson, Malyka 9 Avon 6:19.6 19:39.4 17
18 Horn, Abby 10 Fishers 6:20.3 19:41.6 18
19 O'Shea, Kelly 10 Wheeler 6:20.6 19:42.5 19
20 Pizer, Paige 10 Portage 6:21.4 19:45.1 20
21 Nolting, Natalie 11 Franklin Central 6:23.0 19:50.0 21
22 Talhelm, Carolyn 11 Franklin Central 6:23.3 19:51.0 22
23 Swift, Kelly 12 West Lafayette 6:24.0 19:53.2 23
24 Cassidy, Megan 12 Portage 6:24.6 19:55.0 24
25 Mothersead, Kelsie 9 Avon 6:24.9 19:56.1 25
26 Horn, Rachel 10 Fishers 6:25.4 19:57.6 26
27 Zajac, Megan 9 Lake Central 6:26.6 20:01.2 27
28 Broecker, Megan 11 Zionsville 6:26.7 20:01.6 28
29 McCann, Meghan 10 Fishers 6:27.0 20:02.6 29
30 Herring, Breanna 11 Pike 6:27.2 20:03.2 30
31 Kenney, Karolina 12 Bloomington South 6:29.2 20:09.2 31
32 Banks, Jessica 12 Zionsville 6:31.1 20:15.3 32
33 Williams, Hope 10 Pike 6:31.4 20:16.2 33
34 Murphy, Adrianna 9 Fishers 6:33.0 20:21.1 34
35 Zlotkowski, Tara 9 Lake Central 6:33.1 20:21.5 35
36 Munley, Lauren 11 Zionsville 6:34.1 20:24.7 36
37 Daluga, Cailey 11 West Lafayette 6:34.5 20:25.7 37
38 Uebele, Becca 10 Zionsville 6:34.6 20:26.1 38
39 Greene, Lydia 12 Pike 6:34.8 20:26.6 39
40 Medrano, Monica 10 Lafayette Jefferson 6:35.3 20:28.3 40
41 Bales, Rachel 9 West Lafayette 6:35.5 20:28.8 41
42 Christina, Matthies 9 Franklin Central 6:36.4 20:31.8 42
43 Thompson, Grace 12 Bloomington South 6:36.7 20:32.5 43
44 Harnett, Erin 12 Fishers 6:37.7 20:35.7 44
45 Campbell, Danielle 9 Pike 6:38.2 20:37.5 45
46 Sampson, Courtney 11 Zionsville 6:38.4 20:37.9 46
47 Lazic, Tatiana 10 Lake Central 6:39.6 20:41.8 47
48 Hudi, Sarah 11 Lake Central 6:39.8 20:42.4 48
49 McNicholas, Emily 10 Munster 6:41.8 20:48.5 49
50 Lents, Katie 10 Westfield 6:42.3 20:50.0 50
51 Childs, Sarah 10 Harrison (West Lafayette) 6:42.9 20:52.1 51
52 Carroll, Zoe 10 Lake Central 6:43.4 20:53.5 52
53 Eliason, Nikole 9 Fishers 6:43.7 20:54.2 53
54 Crum, Keanna 10 Portage 6:43.8 20:54.7 54
55 Trader, Abby 12 Portage 6:44.0 20:55.3 55
56 Boone, Megan 11 Harrison (West Lafayette) 6:44.2 20:55.8 56
57 Lewandowski, Alexis 9 Bloomington South 6:44.3 20:56.4 57
58 Jones, Hope 9 Warren Central 6:44.5 20:56.8 58
59 Price, Megan 11 Avon 6:44.6 20:57.3 59
60 Greene, Sophia 12 Pike 6:44.8 20:57.7 60
61 Onest, Amanda 11 Lake Central 6:45.1 20:58.6 61
62 Engel, Katie 12 Portage 6:45.3 20:59.3 62
63 Daugherty, Rachel 12 Warren Central 6:45.4 20:59.8 63
64 Kastberg-Leonard, Mariliz 14 Zionsville 6:45.6 21:00.2 64
65 Burt, Ali 9 Bloomington South 6:46.4 21:02.7 65
66 Fickel, Veronica 9 Bloomington South 6:46.8 21:04.1 66
67 Ogren, Colleen 11 Munster 6:47.3 21:05.5 67
68 Alecio, Jennifer 12 Warren Central 6:48.2 21:08.3 68
69 Vale, Kellyn 9 Andrean 6:50.5 21:15.4 69
70 Green, Hayley 9 West Lafayette 6:50.8 21:16.4 70
71 Din, Asiyah 12 Bloomington South 6:51.2 21:17.7 71
72 Mak Hoffman, Hayley 11 Benton Central 6:52.2 21:20.7 72
73 Rockley, Allison 10 Kankakee Valley 6:52.4 21:21.4 73
74 Linn, Jacey 11 Lawrence North 6:53.7 21:25.4 74
75 Cave, Kristin 10 LaPorte 6:53.9 21:26.1 75
76 Orsburn, Kaylin 10 Kankakee Valley 6:54.4 21:27.5 76
77 Heiny, Kim 10 Twin Lakes 6:55.5 21:31.0 77
78 Sydney, Meyers 9 Zionsville 6:56.2 21:33.1 78
79 Ly, Jenny 10 Pike 6:56.4 21:34.0 79
80 Barber, Delaney 9 West Lafayette 6:58.1 21:39.0 80
81 Schmitz, Riley 9 Westfield 6:59.5 21:43.6 81
82 Evans, Vicky 9 Westfield 6:59.8 21:44.3 82
83 Storz, Kendra 10 McCutcheon 7:00.3 21:46.1 83
84 Madsen, Stephanie 12 Lawrence North 7:00.9 21:47.9 84
85 Hummels, Emily 10 West Lafayette 7:01.9 21:50.9 85
86 Adair, Melissa 12 Westfield 7:02.3 21:52.2 86
87 Foster, Alexandra 10 Harrison (West Lafayette) 7:03.0 21:54.2 87
88 Zeitler, Abby 12 Wheeler 7:03.1 21:54.7 88
89 Moore, Bayley 12 McCutcheon 7:03.3 21:55.4 89
90 Richardson, Marie 12 Lawrence North 7:03.7 21:56.5 90
91 Campbell, Layla 12 Lawrence North 7:04.7 21:59.6 91
92 Snyder, Abby 11 Lawrence North 7:06.5 22:05.3 92
93 Merrill, Hillary 10 Pike 7:06.9 22:06.5 93
94 Swanson, Lynnsdey 12 LaPorte 7:07.0 22:07.0 94
95 Stepp, Brittany 10 Kankakee Valley 7:07.3 22:07.7 95
96 Mineart, Riley 12 McCutcheon 7:08.1 22:10.1 96
97 Grubb, Morgan 9 Fountain Central 7:08.5 22:11.5
98 Cipich, Bri 12 Portage 7:09.9 22:15.7 97
99 Circle, Kaitlin 12 Harrison (West Lafayette) 7:10.0 22:16.2 98
100 Settle, Paige 12 Westfield 7:10.9 22:19.0 99
101 Geisler, Josie 11 McCutcheon 7:11.1 22:19.6 100
102 Circle, Carley 9 Harrison (West Lafayette) 7:12.1 22:22.5 101
103 Khamis, Helen 10 Lawrence North 7:12.2 22:23.0 102
104 Panahi, Grace 11 Lawrence North 7:12.4 22:23.7 103
105 Ruiz, Carmen 10 Andrean 7:13.3 22:26.5 104
106 Pilkington, Holly 11 Westfield 7:13.7 22:27.7 105
107 Jones, Faith 12 Warren Central 7:14.3 22:29.5 106
108 Ganz, Carey 11 Wheeler 7:14.7 22:30.7 107
109 Mitten, Liz 11 Wheeler 7:15.4 22:32.8 108
110 Crum, Rachel 11 Westfield 7:15.8 22:34.1 109
111 Boyle, Allison 12 Munster 7:16.6 22:36.7 110
112 Trueblood, Carolyn 12 Fountain Central 7:17.4 22:39.2
113 Paul, Hedy 12 Warren Central 7:17.7 22:40.2 111
114 Dedelow, Sarah 12 Munster 7:19.3 22:44.9 112
115 Karnezis, Rebecca 10 Munster 7:19.5 22:45.7 113
116 Hajek, Halie 12 LaPorte 7:19.9 22:46.8 114
117 Bohling, Kaitlyn 10 Munster 7:20.9 22:50.0 115
118 States, Mailika 11 Warren Central 7:21.8 22:52.9 116
119 Zayas, Alina 12 Lafayette Jefferson 7:22.0 22:53.5 117
120 Sterling, Lauren 10 LaPorte 7:22.3 22:54.2 118
121 Hong, Emma 11 Munster 7:22.4 22:54.7 119
122 Solomon, Allison 12 McCutcheon 7:23.5 22:58.1 120
123 Haselby, Alyssa 12 Twin Lakes 7:23.8 22:59.0 121
124 Royse, Catherine 10 Twin Lakes 7:23.9 22:59.4 122
125 Dobson, Rachael 11 Rensselaer Central 7:24.1 23:00.1 123
126 Jones, Whitney 11 McCutcheon 7:24.6 23:01.4 124
127 Janiga, Alyson 10 Andrean 7:25.4 23:04.1 125
128 Lilly, Devon 10 Twin Lakes 7:28.1 23:12.5 126
129 Rosenbarger, Janelle 11 Benton Central 7:29.0 23:15.3 127
130 Loft, Destiny 10 McCutcheon 7:29.2 23:15.7 128
131 Oberle, Morgan 12 Twin Lakes 7:30.7 23:20.5 129
132 McCoy, Madison 9 Lafayette Jefferson 7:31.5 23:22.8 130
133 Molter, Cassie 11 Twin Lakes 7:33.6 23:29.6 131
134 Ruiz, Juanna 10 LaPorte 7:36.7 23:39.1 132
135 Garrity, Morgan 9 Rensselaer Central 7:37.6 23:41.9 133
136 Dark, Erin 9 Harrison (West Lafayette) 7:42.3 23:56.6 134
137 Oliver, Ashley 9 Rensselaer Central 7:44.5 24:03.4 135
138 Anderson, Caitlin 11 LaPorte 7:47.3 24:12.1 136
139 Bukur, Anna 12 Andrean 7:47.9 24:13.8 137
140 Lott, Kate 10 Kankakee Valley 7:50.4 24:21.5 138
141 Lezak, Hannah 11 Lafayette Jefferson 7:52.8 24:29.2 139
142 Graham, Jessica 11 Lafayette Jefferson 7:53.7 24:32.0 140
143 Pimmler, Katie 11 Harrison (West Lafayette) 7:56.0 24:39.0 141
144 Goodwine, Kiara 9 Benton Central 8:00.6 24:53.3 142
145 TOW, HALEY 11 Rensselaer Central 8:01.7 24:56.9 143
146 Johnson, Rachel 11 Fountain Central 8:05.9 25:09.9
147 Goodman, Erica 11 Kokomo 8:10.5 25:24.2
148 Jungels, Joli 10 Kankakee Valley 8:10.7 25:24.7 144
149 OHLUND, REANNA 11 Rensselaer Central 8:11.8 25:28.0 145
150 Gutwein, Cassity 11 Twin Lakes 8:12.8 25:31.3 146
151 Krupa, Rachel 11 Kankakee Valley 8:13.8 25:34.3 147
152 Mueller, Maddie 11 Lafayette Jefferson 8:16.0 25:41.2 148
153 Rohlfing, Alyson 11 Kokomo 8:16.7 25:43.5
154 Schleman, Courtney 10 Rensselaer Central 8:19.3 25:51.4 149
155 Nordyke, Allyshia 10 Lafayette Jefferson 8:20.1 25:54.0 150
156 Hannah, Reecer 10 Kokomo 8:39.9 26:55.5
157 Atha, Elizabeth 11 Benton Central 8:42.1 27:02.4 151
158 Lancaster, Josie 11 Wheeler 8:47.8 27:20.1 152
159 Houser, Ginny 10 Fountain Central 8:52.3 27:34.0
160 Voglewede, Abby 10 Benton Central 8:52.4 27:34.4 153
161 Holling, Emily 10 Benton Central 9:18.4 28:55.2 154
162 Bott, Maggie 10 Benton Central 9:33.4 29:41.8 155
163 Garza, Kathleen 11 Andrean 10:20.8 32:08.9 156
Women's 5k JV Team Scores
Rank Team name Total Time Avg. Time Score 1 2 3 4 5 6 7
1 Franklin Central 5:46:57 23:07 37 1 2 3 10 21 23 35
2 Zionsville 17:05:41 25:01 54 5 6 7 16 20 22 24
3 Goshen 3:22:14 22:28 116 13 17 19 31 36 43 56
4 Fishers 14:11:53 26:37 124 11 12 25 34 42 50 59
5 Portage 5:12:29 24:02 127 15 18 26 29 39 49 55
6 Avon 7:14:53 25:34 139 4 14 28 32 61 68 72
7 Lake Central 6:28:37 24:17 175 9 33 40 45 48 66 69
8 Pike 8:54:36 25:27 195 8 30 51 52 54 70 73
9 West Lafayette 3:11:36 23:57 255 27 46 53 64 65 84 90
10 Westfield 5:52:57 25:12 267 38 44 60 62 63 77 80
11 Bloomington South 6:25:51 25:43 299 41 57 58 67 76 79 83
12 Warren Central 5:24:30 27:02 337 37 47 74 85 94 97 104
13 Lawrence North 5:14:32 26:12 415 78 81 82 86 88 93 100
14 LaPorte 2:35:11 25:51 451 75 87 91 95 103 106
15 Munster 4:54:36 29:27 485 71 89 107 108 110 112 117
16 Twin Lakes 2:39:38 26:36 492 92 96 98 101 105 111
17 McCutcheon 4:56:57 29:41 537 99 102 109 113 114 115 116
Women's 5k JV Individual Results
Place Name Year Team Avg. Mile Time Score
1 Adams, Cailyn 9 Franklin Central 6:34.1 20:24.7 1
2 Webb, Emily 10 Franklin Central 6:39.6 20:41.8 2
3 Wall, Crysta 10 Franklin Central 6:39.8 20:42.3 3
4 Hillis, Mikala 11 Avon 6:41.7 20:48.1 4
5 Hoops, Suzie 11 Zionsville 6:45.9 21:01.3 5
6 Whitesell, Carly 11 Zionsville 6:46.4 21:02.9 6
7 Cally, Sampson 9 Zionsville 6:47.3 21:05.6 7
8 Graham, Sarah 12 Pike 6:49.1 21:11.2 8
9 Tharp, Jill 12 Lake Central 6:49.8 21:13.4 9
10 Kurtz, Reagan 9 Franklin Central 6:52.9 21:23.1 10
11 Villarreal, Denise 10 Fishers 6:54.1 21:26.8 11
12 Bartholomew, Maddie 12 Fishers 6:54.8 21:28.7 12
13 Schirch, Juni 12 Goshen 6:54.9 21:29.3 13
14 Brown, Fiona 12 Avon 6:56.2 21:33.1 14
15 King, Sierra 12 Portage 6:56.9 21:35.4 15
16 Gast, Megan 12 Zionsville 6:57.2 21:36.3 16
17 Henke, Adrienne 9 Goshen 6:58.9 21:41.7 17
18 Blackwell, Mariah 9 Portage 6:59.1 21:42.4 18
19 Wynn, Jessica 11 Goshen 6:59.6 21:43.8 19
20 Guerra, Cristina 10 Zionsville 7:00.3 21:45.8 20
21 Bowell, Lakin 11 Franklin Central 7:00.3 21:46.1 21
22 Carollo, Natalie 12 Zionsville 7:00.7 21:47.2 22
23 Moles, Emily 12 Franklin Central 7:00.8 21:47.6 23
24 Stewart, Sophie 12 Zionsville 7:02.3 21:52.3 24
25 Horn, Allie 10 Fishers 7:03.1 21:54.8 25
26 Rhoda, Jackie 9 Portage 7:03.8 21:57.0 26
27 Denton, Grace 10 West Lafayette 7:04.4 21:58.7 27
28 Hill, Megan 9 Avon 7:04.7 21:59.7 28
29 Jones, Mackenzie 10 Portage 7:04.9 22:00.4 29
30 Eberle, Rachael 9 Pike 7:05.1 22:00.9 30
31 Kline, Andrea 10 Goshen 7:05.6 22:02.5 31
32 Caroline, Kerr 9 Zionsville 7:07.2 22:07.6
33 Lane, Avery 9 Avon 7:07.4 22:08.2 32
34 Klapkowski, Alexa 10 Lake Central 7:07.8 22:09.3 33
35 Roth, Abbie 9 Fishers 7:08.8 22:12.4 34
36 Talhelm, Julia 12 Franklin Central 7:09.5 22:14.4 35
37 Place, Tricia 9 Goshen 7:09.6 22:14.9 36
38 Cougill, Sarah 9 Franklin Central 7:10.1 22:16.4
39 Massey, Madison 9 Warren Central 7:10.3 22:17.2 37
40 Wagoner, Haley 11 Westfield 7:10.5 22:17.7 38
41 Escobedo, Janee 10 Portage 7:11.2 22:19.9 39
42 Drabek, Brooke 10 Lake Central 7:12.1 22:22.7 40
43 Derheimer, Lainey 10 Bloomington South 7:12.6 22:24.1 41
44 Xing, Ruth 9 Fishers 7:14.1 22:28.8 42
45 Graves, Megan 11 Goshen 7:14.9 22:31.3 43
46 Settle, Emily 9 Westfield 7:17.0 22:37.8 44
47 Tazbir, Jade 10 Lake Central 7:17.4 22:39.0 45
48 Harvey, Grace 12 West Lafayette 7:17.6 22:39.8 46
49 Hoppes, Sarah 10 Warren Central 7:17.9 22:40.6 47
50 Swider, Jory 10 Lake Central 7:19.3 22:45.0 48
51 Coffman, Alexis 9 Portage 7:20.0 22:47.1 49
52 Todd, Amanda 11 Fishers 7:20.3 22:48.3 50
53 Bessiake, Michelle 11 Pike 7:21.1 22:50.5 51
54 Magana, Janeth 9 Pike 7:21.9 22:53.0 52
55 Cai, Sarah 10 West Lafayette 7:22.6 22:55.2 53
56 Hall, Shelby 10 Pike 7:22.9 22:56.1 54
57 Cervantes, Raquel 12 Portage 7:23.3 22:57.4 55
58 Hathaway, Ellie 9 Goshen 7:23.6 22:58.4 56
59 Short, Morgan 11 Goshen 7:23.8 22:58.9
60 Alter, Brooke 9 Zionsville 7:25.2 23:03.5
61 Marr, Kayla 12 Franklin Central 7:25.6 23:04.5
62 Moore, Ivy 9 Bloomington South 7:26.9 23:08.6 57
63 Peterson, Kelsey 10 Zionsville 7:27.2 23:09.6
64 Comingore, Alex 9 Bloomington South 7:27.5 23:10.5 58
65 Sloan, Ryhan 9 Portage 7:27.8 23:11.5
66 Strobel, Isabel 10 Fishers 7:28.5 23:13.7 59
67 Reeh, Alexa 11 Westfield 7:28.7 23:14.1 60
68 Lustgarten, Alissa 9 Avon 7:28.8 23:14.6 61
69 Huse, Autumn 11 Franklin Central 7:29.0 23:15.1
70 Kramer, Audrey 12 Fishers 7:29.4 23:16.5
71 Johnson, Lauren 12 Zionsville 7:29.6 23:17.1
72 Adams, Megan 9 Westfield 7:30.7 23:20.4 62
73 Gross, Georgia 10 Westfield 7:31.0 23:21.3 63
74 Westbrook, Beau 12 West Lafayette 7:31.2 23:22.1 64
75 Davis, Chloe 10 West Lafayette 7:31.6 23:23.3 65
76 Ault, Megan 11 Lake Central 7:31.9 23:24.3 66
77 Muzii, Megan 11 Bloomington South 7:32.2 23:25.1 67
78 Neel, Mary 12 Zionsville 7:33.4 23:28.7
79 Brothers, Emily 10 Zionsville 7:33.7 23:29.8
80 Reynolds, Erin 9 Portage 7:34.3 23:31.8
81 Anderson, Alexis 9 Avon 7:34.7 23:33.0 68
82 Tao, Tiffany 9 Lake Central 7:36.0 23:36.8 69
83 Kling, Rachel 12 Fishers 7:36.4 23:38.0
84 Peters, Emily 11 Zionsville 7:36.7 23:39.1
85 Barnhart, Megan 9 Franklin Central 7:37.4 23:41.2
86 Mularski, Dana 9 Lake Central 7:37.7 23:42.1
87 Cooper, Adrian 11 Pike 7:39.1 23:46.6 70
88 Spyrka, Lindsay 12 Munster 7:39.8 23:48.8 71
89 Nowakowski, Sydney 9 Zionsville 7:41.2 23:53.2
90 Kennedy, Stephanie 9 Franklin Central 7:42.4 23:56.8
91 Rodgers, Caroline 10 Avon 7:43.1 23:58.9 72
92 Ray, Lauren 10 Pike 7:43.2 23:59.2 73
93 Stephens, Sarah 10 Warren Central 7:45.5 24:06.5 74
94 Menke, Sarah 9 LaPorte 7:46.8 24:10.6 75
95 Rush, Kennedie 9 Fishers 7:47.4 24:12.4
96 Din, Sidrah 9 Bloomington South 7:48.3 24:15.1 76
97 Hepler, Lauren 9 Westfield 7:48.6 24:16.1 77
98 Halvorsen, Valerie 11 Zionsville 7:49.1 24:17.5
99 Torrance, Lizzie 10 Zionsville 7:49.2 24:17.9
100 Gibson, Grace 11 Zionsville 7:49.5 24:18.8
101 Riley, Taylor 11 Lawrence North 7:49.6 24:19.3 78
102 Barrett, Lara 10 Zionsville 7:49.8 24:19.8
103 McCarthy, Katie 11 Zionsville 7:51.3 24:24.5
104 Kabrick, Katie 9 Bloomington South 7:51.8 24:26.2 79
105 Moore, Allee 10 Zionsville 7:52.3 24:27.5
106 Allen, Cassie 10 Zionsville 7:52.6 24:28.6
107 Grace, Riley 9 Zionsville 7:52.8 24:29.0
108 Barnes, Sarah 11 Zionsville 7:53.0 24:29.9
109 Hendricks, Taylor 10 Westfield 7:53.4 24:30.9 80
110 Brown, Jasmyn 9 Goshen 7:54.4 24:34.0
111 Paxton, Maggie 10 Avon 7:56.8 24:41.4
112 Day, Melanie 12 Lawrence North 7:57.7 24:44.3 81
113 Knochel, Kirstin 11 Harrison (West Lafayette) 7:58.2 24:45.9
114 Matthies, Hannah 11 Franklin Central 7:59.0 24:48.5
115 Jovanovic, Andjela 10 Lake Central 7:59.2 24:49.1
116 Kline, Maggie 9 Lawrence North 7:59.4 24:49.6 82
117 Petrie, Samantha 10 Zionsville 7:59.6 24:50.1
118 Tucker, Jen 11 Bloomington South 7:59.7 24:50.7 83
119 Coval, Julie 11 Zionsville 8:00.1 24:51.7
120 Williams, Halee Rae 9 Fishers 8:00.3 24:52.3
121 Bullock, Kathryn 9 West Lafayette 8:00.6 24:53.5 84
122 May, Brittany 9 Fishers 8:01.2 24:55.2
123 Conflenti, Nicole 12 Zionsville 8:01.5 24:56.3
124 Heiniger, Jordan 9 Fishers 8:01.7 24:56.9
125 Jones, London 10 Warren Central 8:02.0 24:57.6 85
126 Petroy, Allison 9 Lawrence North 8:02.5 24:59.4 86
127 Smith, Dallas 10 Lake Central 8:03.9 25:03.6
128 Raggio, Marisa 10 Fishers 8:04.6 25:05.8
129 Spanier, Melissa 9 Lake Central 8:05.2 25:07.6
130 Greene, Veeloni 10 Pike 8:05.3 25:08.1
131 Roark, Macrae 12 Pike 8:05.6 25:08.8
132 Leiser, Margalit 10 Pike 8:06.5 25:11.6
133 Caum, Courtney 11 LaPorte 8:06.7 25:12.3 87
134 Vittori, Anna 12 Lawrence North 8:06.9 25:12.9 88
135 Zmuda, Elaine 10 Munster 8:07.3 25:14.1 89
136 Giese, Hannah 9 Lake Central 8:07.9 25:15.9
137 Takayoshi, Anna 9 Westfield 8:08.6 25:18.3
138 Susnak, Brianna 10 Westfield 8:09.2 25:20.0
139 Petry, Jessica 12 Fishers 8:09.3 25:20.5
140 Boatman, Bryn 12 Bloomington South 8:09.5 25:21.1
141 Shastri, Gauri 11 West Lafayette 8:10.1 25:23.0 90
142 Harris, Gabby 9 LaPorte 8:11.5 25:27.3 91
143 McConnell, Salina 10 Portage 8:12.8 25:31.3
144 Adams, Holly 12 Twin Lakes 8:14.3 25:36.0 92
145 Lazic, Tereza 10 Pike 8:15.0 25:38.1
146 Zeng, Nora 10 Lawrence North 8:16.2 25:41.7 93
147 Skirvin, Emily 9 Bloomington South 8:16.6 25:43.2
148 Manion, Mercedes 10 Bloomington South 8:17.4 25:45.6
149 Keith, Hannah 9 Lake Central 8:18.6 25:49.3
150 Cruz, Natalia 10 Portage 8:19.8 25:53.1
151 Moore, Niche 10 Pike 8:20.4 25:55.0
152 Petit, Reeny 11 Zionsville 8:20.8 25:56.1
153 Philley, Lexy 9 Warren Central 8:21.1 25:56.9 94
154 Westwick, Sarah 12 Avon 8:21.2 25:57.3
155 Takacs, Klara 9 Pike 8:21.5 25:58.5
156 Cotton, Katina 12 Pike 8:22.6 26:01.6
157 Albright, Rebecca 10 Lake Central 8:22.9 26:02.8
158 Droste, Leah 9 Pike 8:23.1 26:03.2
159 Martin, Megan 10 LaPorte 8:23.6 26:04.9 95
160 Shabazz, Rhiana 12 Pike 8:24.4 26:07.3
161 Hall, Ashley 11 Twin Lakes 8:25.2 26:09.8 96
162 Hancock, Diana 10 Warren Central 8:25.3 26:10.2 97
163 Mill, Jericha 11 Pike 8:25.8 26:11.8
164 Dalgleish, Hayley 10 Twin Lakes 8:26.6 26:14.0 98
165 Shanze, Tahir 9 Zionsville 8:27.7 26:17.7
166 Panizzi, Rachael 12 McCutcheon 8:30.3 26:25.6 99
167 Hamon, Emily 10 Fishers 8:31.9 26:30.5
168 Huibregtse, Natalie 11 Fishers 8:32.5 26:32.5
169 Prust, Sara 11 Zionsville 8:33.8 26:36.6
170 Walker, Katie 12 Westfield 8:34.5 26:38.8
171 Jenkins, Summer 9 Avon 8:35.8 26:42.8
172 Chentnik, Cagney 9 Fishers 8:36.2 26:43.9
173 Lee, Maya 9 Lawrence North 8:36.3 26:44.2 100
174 Snyder, Kaytlin 12 Twin Lakes 8:38.5 26:51.2 101
175 Ray, Morgan 10 Pike 8:39.6 26:54.6
176 Yadron, Samantha 11 Lake Central 8:40.5 26:57.3
177 Leonard, Clare 10 Zionsville 8:41.3 26:59.8
178 Timberlake, Elizabeth 11 West Lafayette 8:41.7 27:01.2
179 Sipher, Sarah 11 Fishers 8:42.2 27:02.7
180 Breeden, Gena 12 Bloomington South 8:42.4 27:03.4
181 Moore, Melissa 11 McCutcheon 8:42.6 27:03.7 102
182 Hodge, Angel 9 LaPorte 8:42.7 27:04.2 103
183 Amezcua, Lilly 9 Warren Central 8:42.9 27:04.7 104
184 Anderson, Gaby 9 Westfield 8:44.1 27:08.5
185 Hauser, Kathryn 11 Fishers 8:44.7 27:10.4
186 Ross, De'sjonna 11 Warren Central 8:44.8 27:10.7
187 LaOrange, Kaylee 11 Twin Lakes 8:44.9 27:11.1 105
188 Wiltfong, Renate 12 LaPorte 8:45.4 27:12.7 106
189 Beckman, Caroline 10 Munster 8:45.9 27:14.3 107
190 Henkel, Emily 10 Fishers 8:46.8 27:17.1
191 Purdy, Stephanie 10 Avon 8:47.1 27:17.9
192 Federspill, Kelsey 11 Lawrence North 8:48.4 27:21.9
193 Allen, Brianna 11 Avon 8:48.7 27:22.8
194 Schwartz, Cassidy 10 Munster 8:48.9 27:23.4 108
195 Mikayla, Illingworth 9 Harrison (West Lafayette) 8:49.7 27:26.0
196 Kuznetsov, Stephanie 11 Zionsville 8:50.0 27:26.8
197 Ramirez, Layla 11 Lawrence North 8:50.2 27:27.6
198 Edge, JoLee 10 McCutcheon 8:50.4 27:28.3 109
199 Hendricks, Hannah 12 Fishers 8:50.6 27:28.9
200 Reemer, Jourdan 10 Lawrence North 8:51.6 27:31.9
201 Light, Stefani 10 Avon 8:52.2 27:33.8
202 Beckman, Elizabeth 10 Munster 8:52.8 27:35.4 110
203 Withnell, Caitlin 11 Bloomington South 8:53.0 27:36.3
204 Andrews, Madeline 10 Twin Lakes 8:53.2 27:36.8 111
205 Tovar, Stephanie 11 Lafayette Jefferson 8:53.4 27:37.4
206 Farmer, Miranda 10 Avon 8:53.8 27:38.6
207 Billman, Kirsten 12 Westfield 8:54.0 27:39.4
208 Ortega, Tori 10 Lake Central 8:54.2 27:39.9
209 Sangani, Amee 9 Avon 8:55.5 27:43.9
210 Howard, Keanna 9 Lawrence North 8:56.3 27:46.5
211 McKenzie, Ariela 11 Fishers 8:57.1 27:49.0
212 Roche, Katie 10 Lawrence North 8:58.6 27:53.7
213 Adams, Sabrina 9 Bloomington South 8:58.8 27:54.3
214 Griffin, Casey 11 Munster 9:01.0 28:01.1 112
215 Horth, Madison 12 Zionsville 9:01.5 28:02.7
216 Prehm, Madeline 12 Zionsville 9:02.3 28:05.1
217 Stephens, Mackenzie 11 Fishers 9:02.5 28:05.6
218 Mikalouski, Laurel 9 Westfield 9:04.0 28:10.4
219 Vance, Emma 9 Fishers 9:04.9 28:13.2
220 Barajas, Marisol 9 Portage 9:05.1 28:13.7
221 Alcock, Kaley 12 McCutcheon 9:05.3 28:14.3 113
222 Massey, Marissa 9 Franklin Central 9:05.5 28:14.9
223 Edelman, Maggie 12 Zionsville 9:06.3 28:17.5
224 Ressler, Petra 10 Zionsville 9:06.7 28:18.8
225 Kriebel, Carmen 10 McCutcheon 9:08.2 28:23.4 114
226 Graham, Paige 12 Zionsville 9:08.6 28:24.7
227 Scurlock, Camille 9 Fishers 9:10.9 28:31.7
228 Lawson, Julia 9 Franklin Central 9:13.9 28:41.3
229 Vogel, Carolina 11 Fishers 9:14.4 28:42.7
230 Bruce, Sarah 9 Zionsville 9:16.8 28:50.1
231 Angeles, Cesilia 11 McCutcheon 9:20.1 29:00.4 115
232 Stevens, Maddie 10 Westfield 9:21.5 29:04.7
233 McDonald, Sarah 10 Bloomington South 9:22.7 29:08.6
234 Clark, Kennedy 11 Pike 9:26.0 29:18.8
235 Chidalek, Nora 10 McCutcheon 9:26.2 29:19.3 116
236 Sanz-Henriquez, Cristal 11 Pike 9:30.2 29:31.8
237 Jordan, Jasmyne 9 Warren Central 9:31.6 29:36.3
238 Pilcher, Merrin 12 Zionsville 9:33.5 29:42.0
239 Washington, Maya 10 Warren Central 9:35.8 29:49.1
240 Robbins, Rebecca 10 Fishers 9:36.6 29:51.5
241 Maclin, Katie 11 Zionsville 9:37.0 29:53.0
242 Long, Gabrielle 9 Avon 9:43.3 30:12.5
243 Goonewardene, Megan 11 McCutcheon 9:43.8 30:14.1
244 Kurtz, Madison 9 Portage 9:55.1 30:49.3
245 Marshall, Breanna 9 Fishers 10:01.5 31:08.9
246 Bohling, Bianca 11 Munster 10:04.5 31:18.4 117
247 Delaney, Seairah 10 Bloomington South 10:11.2 31:39.1
248 McMillian, Victoria 11 Pike 10:15.0 31:51.1
249 Wilson, Rushell 9 Warren Central 10:24.1 32:19.3
250 Anne, Poindexter 9 Zionsville 10:24.5 32:20.7
251 Washington, Mikala 10 Warren Central 10:25.1 32:22.5
252 Brooks, Aundra 11 Avon 10:26.9 32:28.0
253 Martin, Samantha 12 Munster 10:30.9 32:40.5
254 Abraham, Peyton 11 Fishers 10:40.0 33:08.7
255 Sale, Rachel 11 McCutcheon 11:01.7 34:16.2
256 Rodriguez, Suzana 11 Munster 11:24.7 35:27.6
257 Johnson, Morgan 9 Fishers 11:29.7 35:43.3
258 Stahl, Morgan 12 Munster 11:32.8 35:52.8
259 Dietz, Kristen 11 McCutcheon 11:45.6 36:32.5
260 Lehman, Emily 9 Fishers 12:53.3 40:02.9
Men's 5k Varsity Team Scores
Rank Team name Total Time Avg. Time Score 1 2 3 4 5 6 7
1 Bloomington South 1:54:15 16:19 60 2 5 8 22 23 28 31
2 Zionsville 1:56:24 16:37 83 3 11 16 21 32 45 84
3 Franklin Central 1:56:18 16:36 84 1 12 17 18 36 50 71
4 LaPorte 1:58:50 16:58 158 4 24 30 47 53 78 92
5 Andrean 1:59:39 17:05 181 13 15 42 55 56 73 93
6 Avon 2:01:14 17:19 229 10 41 48 63 67 94 114
7 Portage 2:02:41 17:31 248 29 37 40 66 76 81 147
8 Warren Central 2:01:38 17:22 258 6 35 43 86 88 99 117
9 Fishers 2:03:03 17:34 268 9 33 58 65 103 112 150
10 Lawrence North 2:02:12 17:27 291 44 49 61 68 69 83 105
11 West Lafayette 2:03:01 17:34 300 7 39 52 96 106 118 130
12 McCutcheon 2:02:46 17:32 302 25 54 70 74 79 82 119
13 Lake Central 2:04:18 17:45 365 46 59 77 85 98 104 134
14 Munster 2:04:10 17:44 365 26 27 95 108 109 120 124
15 Goshen 2:04:29 17:47 381 34 64 87 89 107 111 127
16 Highland 2:06:42 18:06 398 14 38 102 113 131 153 154
17 Wheeler 2:09:33 18:30 467 20 57 115 136 139 164 165
18 Pike 1:49:55 18:19 477 19 75 100 125 158 162
19 Lafayette Jefferson 2:10:09 18:35 536 51 80 121 140 144 148 160
20 Harrison (West Lafayette) 2:10:28 18:38 540 72 90 110 133 135 149 168
21 Kankakee Valley 2:10:03 18:34 586 60 122 126 137 141 142 145
22 Rensselaer Central 2:13:12 19:01 616 62 91 152 155 156 163 166
23 Kokomo 1:54:03 19:00 650 101 116 128 138 167 170
24 Twin Lakes 2:15:27 19:21 668 97 129 132 151 159 172 174
25 Fountain Central 2:21:45 20:15 772 123 143 157 173 176 177 180
26 Benton Central 2:23:44 20:32 822 146 161 169 171 175 178 179
Men's 5k Varsity Individual Results
Place Name Year Team Avg. Mile Time Score
1 Crist, Jason 12 Franklin Central 4:59.2 15:29.6 1
2 Smith, Carl 12 Bloomington South 4:59.7 15:31.3 2
3 Berger, Sam 12 Zionsville 5:01.6 15:37.0 3
4 Hubner, Mitch 12 LaPorte 5:01.7 15:37.5 4
5 Chandler, Mark 12 Bloomington South 5:08.0 15:57.0 5
6 Smith, Brandon 12 Warren Central 5:09.4 16:01.4 6
7 Cartwright, Andrew 12 West Lafayette 5:09.7 16:02.4 7
8 Burks, Curtis 11 Bloomington South 5:10.6 16:05.0 8
9 Kraft, Calvin 10 Fishers 5:12.5 16:10.9 9
10 Muelller, Jordan 11 Avon 5:13.0 16:12.5 10
11 Herhusky, Mason 11 Zionsville 5:13.2 16:13.0 11
12 Dhadwal, Nick 12 Franklin Central 5:14.1 16:15.9 12
13 Musgrave, Pat 12 Andrean 5:14.3 16:16.5 13
14 Baranowski, Jacob 12 Highland 5:15.1 16:18.9 14
15 Wolf, Blaine 12 Andrean 5:17.2 16:25.5 15
16 Conrad, Ryan 10 Zionsville 5:17.6 16:26.7 16
17 Martin, Andrice 11 Franklin Central 5:17.9 16:27.6 17
18 Presnell, Austin 11 Franklin Central 5:18.2 16:28.6 18
19 Tebeje, Samuel 11 Pike 5:18.9 16:30.8 19
20 Nurse, Kyle 12 Wheeler 5:19.6 16:33.0 20
21 Gernhard, Max 11 Zionsville 5:20.0 16:34.4 21
22 Huntoon, Jordan 11 Bloomington South 5:20.5 16:35.7 22
23 Schreuder, Amos 12 Bloomington South 5:21.0 16:37.4 23
24 Dubbs, Dakota 12 LaPorte 5:21.6 16:39.3 24
25 McKinney, Mason 11 McCutcheon 5:21.9 16:40.1 25
26 Bolanowski, Tom 10 Munster 5:22.1 16:41.0 26
27 Rigoni, Tony 12 Munster 5:22.3 16:41.4 27
28 Ehman, Nick 11 Bloomington South 5:22.7 16:42.8 28
29 Blackwell, Robert 12 Portage 5:23.8 16:46.0 29
30 Didion, Anthony 10 LaPorte 5:23.9 16:46.5 30
31 Rich-Harris, Kaleb 12 Bloomington South 5:24.1 16:47.0 31
32 Bixler, Graham 12 Zionsville 5:24.2 16:47.5 32
33 Pensinger, Andrew 12 Fishers 5:24.5 16:48.2 33
34 Kaufman, Luke 11 Goshen 5:25.2 16:50.4 34
35 Stone, Cody 12 Warren Central 5:25.7 16:51.9 35
36 Webb, Andrew 11 Franklin Central 5:27.3 16:56.9 36
37 Balboa, Dustin 10 Portage 5:27.5 16:57.6 37
38 zach, glick 11 Highland 5:27.6 16:58.1 38
39 Cohen, Jake 9 West Lafayette 5:27.8 16:58.5 39
40 Zmija, Max 12 Portage 5:28.1 16:59.3 40
41 Hughes, Ross 11 Avon 5:28.2 16:59.9 41
42 Kalbfell, Lucas 11 Andrean 5:28.4 17:00.4 42
43 Justice, Lee 10 Warren Central 5:28.5 17:00.8 43
44 Khamis, Joey 11 Lawrence North 5:28.7 17:01.2 44
45 Rice, Brian 10 Zionsville 5:28.8 17:01.5 45
46 Keith, Josh 12 Lake Central 5:28.9 17:01.9 46
47 Gerick, Nate 12 LaPorte 5:29.3 17:03.2 47
48 Briggs, Luke 12 Avon 5:30.3 17:06.2 48
49 Oldham, Adam 11 Lawrence North 5:30.6 17:07.1 49
50 Marrero, Evan 12 Franklin Central 5:30.9 17:08.2 50
51 Moore, Logan 12 Lafayette Jefferson 5:31.2 17:09.1 51
52 Lewark, Chase 12 West Lafayette 5:31.9 17:11.3 52
53 Hucksted, Kevin 11 LaPorte 5:32.2 17:12.3 53
54 Lyman, Casey 12 McCutcheon 5:32.4 17:12.9 54
55 Anderson, Justin 10 Andrean 5:32.7 17:13.8 55
56 Janiga, Nick 11 Andrean 5:32.9 17:14.3 56
57 Cinko, Nick 11 Wheeler 5:33.1 17:15.0 57
58 Pollock, Rocky 12 Fishers 5:33.4 17:15.8 58
59 Thompson, Alex 12 Lake Central 5:33.8 17:17.2 59
60 Conley, Travis 10 Kankakee Valley 5:34.2 17:18.3 60
61 Bowers, Aaron 10 Lawrence North 5:34.9 17:20.7 61
62 NAGEL, TRENT 12 Rensselaer Central 5:36.0 17:23.9 62
63 Hussain, Ashar 11 Avon 5:36.1 17:24.3 63
64 Weeden, Adam 11 Goshen 5:36.3 17:25.1 64
65 Duba, David 12 Fishers 5:36.8 17:26.5 65
66 Swets, Tyler 12 Portage 5:36.9 17:26.8 66
67 Voth, Conner 11 Avon 5:37.1 17:27.6 67
68 Scofield, Greg 12 Lawrence North 5:37.6 17:28.9 68
69 Murphy, Joe 10 Lawrence North 5:37.8 17:29.7 69
70 Crist, Brendon 11 McCutcheon 5:38.0 17:30.2 70
71 Shaw, Matt 12 Franklin Central 5:38.6 17:32.1 71
72 Bond, Evan 11 Harrison (West Lafayette) 5:40.2 17:37.1 72
73 Gough, Jeff 12 Andrean 5:40.3 17:37.5 73
74 Wickes, Jacob 11 McCutcheon 5:40.4 17:37.8 74
75 Austin, Gary 12 Pike 5:40.5 17:38.1 75
76 Clegg, David 10 Portage 5:40.7 17:38.5 76
77 Lopacki, Nick 11 Lake Central 5:40.9 17:39.2 77
78 Owen, Elijah 12 LaPorte 5:41.3 17:40.6 78
79 Wethington, Jacob 10 McCutcheon 5:41.7 17:41.6 79
80 Martel, Noah 11 Lafayette Jefferson 5:42.0 17:42.8 80
81 Hudson, Tylor 9 Portage 5:42.2 17:43.3 81
82 Funk, A.J 10 McCutcheon 5:42.3 17:43.7 82
83 Williams, Ty 12 Lawrence North 5:42.6 17:44.5 83
84 Corya, Adam 10 Zionsville 5:42.7 17:44.9 84
85 Kline, Kelly 11 Lake Central 5:42.8 17:45.3 85
86 Wert, Johnny 11 Warren Central 5:43.0 17:45.6 86
87 Zimmerman, Reid 11 Goshen 5:43.1 17:46.0 87
88 Egan, Matt 10 Warren Central 5:43.4 17:47.1 88
89 Torres, Alfonso 11 Goshen 5:43.9 17:48.6 89
90 Monical, Johnathan 12 Harrison (West Lafayette) 5:44.1 17:49.1 90
91 Urbano, John 10 Rensselaer Central 5:44.7 17:51.1 91
92 Didion, Jonathan 12 LaPorte 5:44.9 17:51.5 92
93 Musgrave, Jack 10 Andrean 5:45.0 17:52.1 93
94 Wieczorek, Spencer 12 Avon 5:45.1 17:52.4 94
95 Burgwald, Steven 11 Munster 5:45.2 17:52.7 95
96 Clark, Dakota 10 West Lafayette 5:45.3 17:53.0 96
97 Snyder, Kody 9 Twin Lakes 5:45.4 17:53.3 97
98 Albright, Chris 11 Lake Central 5:45.6 17:53.7 98
99 Weaver, Cody 12 Warren Central 5:45.7 17:54.2 99
100 Kortman, John 12 Pike 5:46.0 17:55.2 100
101 Noll, Brent 11 Kokomo 5:46.2 17:55.6 101
102 marc, foss 11 Highland 5:46.4 17:56.3 102
103 Butler, Nick 9 Fishers 5:46.6 17:57.0 103
104 Rech, Josh 10 Lake Central 5:46.9 17:57.9 104
105 Teklezghi, Robel 10 Lawrence North 5:47.7 18:00.5 105
106 Knight, Lowell 10 West Lafayette 5:47.9 18:01.0 106
107 Place, Stephen 12 Goshen 5:48.2 18:01.8 107
108 Farrell, Steve 12 Munster 5:48.5 18:02.7 108
109 Kritzer, Ryan 9 Munster 5:49.8 18:06.9 109
110 Payne, Jacob 11 Harrison (West Lafayette) 5:50.1 18:07.8 110
111 Schalabach, Logan 12 Goshen 5:50.3 18:08.3 111
112 Heiniger, Colton 11 Fishers 5:50.7 18:09.7 112
113 noah, trexler 12 Highland 5:50.9 18:10.4 113
114 Vu, Brandon 10 Avon 5:51.4 18:11.9 114
115 Mills, James 10 Wheeler 5:51.9 18:13.5 115
116 Breedlove, Jeremy 10 Kokomo 5:52.2 18:14.4 116
117 Wenrich, Zephyr 11 Warren Central 5:53.2 18:17.5 117
118 Straight, Scott 12 West Lafayette 5:53.5 18:18.5 118
119 Berryman, Tyler 12 McCutcheon 5:54.0 18:20.0 119
120 Bochnowski, Elliott 12 Munster 5:54.3 18:20.9 120
121 Long, Josh 10 Lafayette Jefferson 5:55.0 18:23.0 121
122 Svitek, Robert 10 Kankakee Valley 5:55.3 18:23.9 122
123 Posthauer, Jordan 12 Fountain Central 5:55.6 18:24.9 123
124 Lopez, Manny 9 Munster 5:55.7 18:25.4 124
125 Lancaster, Scott 11 Pike 5:55.9 18:25.9 125
126 Hazlett, Brandon 11 Kankakee Valley 5:56.5 18:27.9 126
127 Abbs, Josh 11 Goshen 5:57.0 18:29.2 127
128 Coulter, Waylon 11 Kokomo 5:57.9 18:32.2 128
129 DeBoy, Cody 10 Twin Lakes 5:58.8 18:34.9 129
130 Brehm, Aaron 10 West Lafayette 5:59.4 18:36.7 130
131 linkiewicz, dylan 10 Highland 5:59.6 18:37.4 131
132 Tribbett, Mason 11 Twin Lakes 5:59.8 18:38.0 132
133 Hockerman, Paul 12 Harrison (West Lafayette) 6:01.2 18:42.4 133
134 Flores, Emmanuel 12 Lake Central 6:01.7 18:43.8 134
135 Shen, Henry 10 Harrison (West Lafayette) 6:02.2 18:45.3 135
136 Hansen, Eddie 11 Wheeler 6:03.3 18:48.8 136
137 Mezzacapo, Stephen 12 Kankakee Valley 6:03.7 18:50.0 137
138 Scharenbroch, Matthew 12 Kokomo 6:04.0 18:51.2 138
139 Nader, Alex 9 Wheeler 6:04.3 18:52.1 139
140 Talbott, Quintin 10 Lafayette Jefferson 6:05.8 18:56.6 140
141 Overstreet, Trevor 12 Kankakee Valley 6:06.4 18:58.4 141
142 Gawronski, Bryce 9 Kankakee Valley 6:06.6 18:59.0 142
143 Corey, Clayton 9 Fountain Central 6:08.2 19:04.0 143
144 Sunkel, Rich 12 Lafayette Jefferson 6:08.5 19:05.2 144
145 Jones, Cody 13 Kankakee Valley 6:08.9 19:06.3 145
146 Niccum, Zach 12 Benton Central 6:09.5 19:08.1 146
147 Thielbar, Jacob 10 Portage 6:10.1 19:09.9 147
148 Griffin, Cayce 9 Lafayette Jefferson 6:10.4 19:11.0 148
149 Whiteman, Drew 11 Harrison (West Lafayette) 6:11.5 19:14.4 149
150 Puccinelli, Josh 10 Fishers 6:12.1 19:16.1 150
151 Demiduk, Justin 10 Twin Lakes 6:12.4 19:17.1 151
152 KEM, TYLER 11 Rensselaer Central 6:12.7 19:18.0 152
153 Szcepanski, Michael 11 Highland 6:13.1 19:19.2 153
154 Conor, Stack 11 Highland 6:14.1 19:22.4 154
155 Alsman, Anthony 9 Rensselaer Central 6:14.5 19:23.7 155
156 OTT, BRAD 11 Rensselaer Central 6:15.7 19:27.2 156
157 Stewart, Lance 11 Fountain Central 6:17.7 19:33.6 157
158 Richardson, John 10 Pike 6:18.0 19:34.4 158
159 Haskins, Nic 11 Twin Lakes 6:18.7 19:36.7 159
160 Tirado, Jose 11 Lafayette Jefferson 6:20.4 19:42.0 160
161 Weise, Alec 12 Benton Central 6:20.9 19:43.5 161
162 Laureano, Jose 11 Pike 6:23.3 19:51.1 162
163 Horner, Jace 10 Rensselaer Central 6:23.6 19:51.9 163
164 Theiss, Robert 10 Wheeler 6:24.6 19:55.0 164
165 Bodnar, Michael 10 Wheeler 6:24.9 19:55.9 165
166 DeWees, Devin 9 Rensselaer Central 6:25.1 19:56.6 166
167 Fivecoate, Jordan 10 Kokomo 6:26.4 20:00.8 167
168 Koster, Chase 12 Harrison (West Lafayette) 6:30.4 20:13.1 168
169 Owens, Caleb 11 Benton Central 6:34.2 20:24.9 169
170 Revils, Josh 10 Kokomo 6:35.7 20:29.5 170
171 Tompkins, Torrin 12 Benton Central 6:36.2 20:31.0 171
172 Novack, Will 9 Twin Lakes 6:37.3 20:34.6 172
173 Butler, John 12 Fountain Central 6:40.2 20:43.5 173
174 Manion, Sam 10 Twin Lakes 6:43.2 20:52.7 174
175 Micon, Jonathan 12 Benton Central 6:43.6 20:54.1 175
176 Phillips, Weston 11 Fountain Central 6:45.9 21:01.2 176
177 Trueblood, Isaac 10 Fountain Central 6:49.6 21:12.7 177
178 Gerlach, Cort 12 Benton Central 6:52.2 21:21.0 178
179 Cripe, Collin 9 Benton Central 6:59.0 21:42.0 179
180 Callahan, Tim 9 Fountain Central 7:00.4 21:46.2 180